[[{"header":{"parameterUnit":"m.s-1","parameterCategory":1,"la1":30.2991,"la2":30.254,"lo1":-89.0895,"lo2":-89.0444,"dy":0.0017,"dx":0.0017,"nx":28,"ny":28,"refTime":"2023-08-17T09:00:00:Z","depth":0,"parameterNumber":2,"parameterNumberName":"U-component_of_WINDS"},"data":[0,0,0,0,0,0,0,0,0,0,0,0,0,0,0,0,0,0,0,0,0,0,0,0,0,0,0,0,0,0,0,0,0,0,0,0,0,0,0,0,0,0,0,0,0,0,0,0,0,0,0,0,0,0,0,0,0,0,0.4381,0.4382,0,0.449,0.4491,0.4492,0.4537,0.4536,0.4536,0.4536,0.4651,0.4654,0.4658,0,0,0,0,0,0,0,0,0,0,0,0,0,0.4213,0.4216,0.4381,0.4382,0.4384,0.449,0.4491,0.4493,0.4537,0.4536,0.4536,0.4536,0.465,0.4654,0.4658,0,0,0,0,0,0,0,0,0,0,0,0,0,0.4301,0.4217,0.4381,0.4418,0.4423,0.4489,0.4491,0.4493,0.4537,0.4536,0.4536,0.4536,0.4649,0.4654,0.4658,0.4697,0,0,0.4674,0.4676,0,0,0,0,0,0,0,0,0.4296,0.4307,0.4412,0.4416,0.4421,0.4499,0.4474,0.4562,0.4537,0.4494,0.4536,0.4535,0.4601,0.461,0.4631,0.4702,0.4707,0.4674,0.4677,0.4679,0.4681,0,0,0,0,0,0,0,0.429,0.4302,0.4424,0.4413,0.4419,0.4431,0.4443,0.4491,0.4548,0.4497,0.4501,0.4513,0.4604,0.4626,0.4634,0.4709,0.4674,0.4678,0.4681,0.4683,0.4816,0.4816,0,0,0,0,0,0,0.4277,0.4297,0.4421,0.4428,0.4356,0.4434,0.4447,0.4475,0.4548,0.4559,0.4513,0.4515,0.4618,0.4629,0.4639,0.4688,0.4679,0.4684,0.4687,0.4815,0.4816,0.4816,0,0,0,0,0,0,0.4273,0.4288,0.4416,0.4363,0.4381,0.4437,0.4468,0.4477,0.45,0.456,0.4571,0.4526,0.4618,0.4632,0.4681,0.4692,0.4686,0.469,0.4814,0.4815,0.4816,0.4787,0,0,0,0,0,0,0.4268,0.4286,0.4301,0.4363,0.4383,0.4457,0.4468,0.4479,0.4508,0.4511,0.4574,0.4585,0.4619,0.4674,0.4686,0.4699,0.4694,0.4814,0.4815,0.4816,0.4787,0.4786,0.4786,0,0,0,0,0,0.4262,0.4289,0.4301,0.4316,0.4403,0.4457,0.4469,0.4507,0.4508,0.4524,0.4562,0.4583,0.4689,0.4679,0.4693,0.4707,0.4813,0.4814,0.4816,0.4787,0.4786,0.4786,0,0,0,0,0,0,0.4228,0.4298,0.4312,0.436,0.4402,0.4465,0.4485,0.4505,0.4548,0.4549,0.4596,0.461,0.4655,0.4687,0.4674,0.4748,0.4753,0.4757,0.4726,0.4726,0.4725,0.4717,0.4698,0,0,0,0,0,0.4225,0.4263,0.4323,0.4359,0.438,0.4428,0.4454,0.4479,0.4525,0.4544,0.4586,0.463,0.4674,0.4702,0.4745,0.4791,0.4806,0.4808,0.4808,0.4807,0.481,0.4836,0.4838,0.482,0.482,0.482,0,0,0.4222,0.4265,0.4286,0.4353,0.4389,0.4428,0.4443,0.4484,0.4513,0.455,0.4599,0.4631,0.4684,0.4732,0.4756,0.476,0.4818,0.4809,0.4807,0.4811,0.4838,0.4839,0.4841,0.4821,0.4821,0.4821,0,0,0.4235,0.4271,0.4305,0.434,0.4393,0.4425,0.4433,0.4492,0.4515,0.4564,0.4593,0.4628,0.4702,0.4738,0.4766,0.4791,0.4811,0.4804,0.4802,0.4826,0.4828,0.4829,0.4838,0.484,0.4807,0.4807,0.4807,0,0.4224,0.4282,0.432,0.4359,0.4387,0.4421,0.4456,0.4488,0.4553,0.4572,0.4576,0.4668,0.4706,0.4763,0.4768,0.479,0.4801,0.4797,0.4824,0.4826,0.4828,0.4837,0.484,0.4806,0.4806,0.4806,0.4806,0,0.4266,0.4306,0.4327,0.4387,0.4418,0.4455,0.4499,0.4526,0.4548,0.458,0.4629,0.4676,0.4729,0.4744,0.4767,0.4804,0.4804,0.4815,0.4821,0.4828,0.4837,0.4841,0.4804,0.4804,0.4805,0.4805,0,0,0.4261,0.4341,0.4348,0.4375,0.4435,0.4468,0.4505,0.4555,0.4578,0.4621,0.4654,0.4715,0.4725,0.4756,0.4783,0.4805,0.4821,0.4814,0.4816,0.4813,0.4864,0.4855,0.4859,0.4834,0.4835,0.4836,0.4859,0,0.4282,0.435,0.4385,0.4439,0.4476,0.4508,0.454,0.4581,0.4612,0.4648,0.4682,0.4724,0.4735,0.4754,0.4777,0.4814,0.4832,0.4813,0.4866,0.4868,0.4852,0.4863,0.4855,0.4875,0.4863,0.4864,0.4864,0,0.4316,0.4357,0.4414,0.4469,0.4486,0.4515,0.4563,0.4597,0.4644,0.4665,0.4699,0.4725,0.4766,0.4768,0.4825,0.4812,0.4835,0.4857,0.4859,0.4866,0.4867,0.4871,0.4882,0.4885,0.487,0.487,0.4869,0,0.4307,0.4376,0.4419,0.4442,0.4507,0.4526,0.4555,0.4601,0.4628,0.4671,0.4689,0.4736,0.4762,0.4798,0.4836,0.4834,0.489,0.4895,0.4908,0.4907,0.4919,0.4918,0.4935,0.4934,0.4934,0.4934,0.4934,0,0.4326,0.436,0.4416,0.4442,0.448,0.452,0.4557,0.4588,0.4628,0.4661,0.4692,0.4723,0.4771,0.4808,0.4838,0.488,0.4892,0.491,0.4918,0.4908,0.4905,0.4924,0.4924,0.4935,0.4934,0.4934,0.4934,0,0.4323,0.4362,0.441,0.4467,0.4482,0.4508,0.4557,0.4584,0.4615,0.4657,0.4669,0.4718,0.4763,0.4804,0.4864,0.4884,0.4927,0.4937,0.4911,0.4916,0.4927,0.4925,0.4957,0.4963,0.4957,0.4957,0.4957,0,0.4333,0.4359,0.4419,0.4442,0.447,0.4508,0.4536,0.4575,0.4603,0.4657,0.4678,0.4724,0.4764,0.4833,0.4875,0.4921,0.4932,0.494,0.4939,0.4928,0.4932,0.493,0.4933,0.494,0.4939,0.4939,0.4939,0,0.4347,0.4364,0.4403,0.4448,0.448,0.4517,0.4556,0.4574,0.4621,0.4651,0.4696,0.4726,0.4786,0.4832,0.4882,0.4912,0.4934,0.4939,0.4944,0.4935,0.4918,0.4927,0.491,0.4938,0.4938,0.4938,0.4938,0.4939,0.4351,0.4375,0.442,0.4462,0.4495,0.453,0.4558,0.4592,0.463,0.4681,0.4702,0.4748,0.4793,0.4863,0.4892,0.4929,0.4933,0.4941,0.4944,0.4945,0.4943,0.4912,0.4938,0.4938,0.4938,0.4938,0.4938,0,0.4366,0.4396,0.4434,0.4487,0.4519,0.4535,0.4578,0.4605,0.4644,0.4684,0.4722,0.4773,0.4817,0.4862,0.4908,0.4929,0.494,0.494,0.4939,0.4946,0.4936,0.4927,0.493,0.493,0.493,0.493,0.493,0.493,0.4378,0.442,0.4443,0.4501,0.4532,0.4576,0.4599,0.4631,0.4663,0.4719,0.4756,0.4784,0.4826,0.4875,0.4916,0.4928,0.4944,0.4941,0.4956,0.4946,0.4947,0.4947,0.4938,0.4944,0.4944,0.4963,0.4963,0.4963]},{"header":{"parameterUnit":"m.s-1","parameterCategory":1,"la1":30.2991,"la2":30.254,"lo1":-89.0895,"lo2":-89.0444,"dy":0.0017,"dx":0.0017,"nx":28,"ny":28,"refTime":"2023-08-17T09:00:00:Z","depth":0,"parameterNumber":3,"parameterNumberName":"V-component_of_WINDS"},"data":[0,0,0,0,0,0,0,0,0,0,0,0,0,0,0,0,0,0,0,0,0,0,0,0,0,0,0,0,0,0,0,0,0,0,0,0,0,0,0,0,0,0,0,0,0,0,0,0,0,0,0,0,0,0,0,0,0,0,3.988,3.988,0,3.9836,3.9836,3.9835,3.9795,3.9795,3.9794,3.9794,3.9746,3.9746,3.9745,0,0,0,0,0,0,0,0,0,0,0,0,0,3.9925,3.9925,3.9881,3.988,3.9879,3.9837,3.9836,3.9835,3.9795,3.9795,3.9794,3.9793,3.9747,3.9746,3.9745,0,0,0,0,0,0,0,0,0,0,0,0,0,3.9896,3.9925,3.9881,3.9854,3.9851,3.9837,3.9836,3.9835,3.9795,3.9795,3.9794,3.9793,3.9747,3.9746,3.9745,3.9752,0,0,3.9741,3.974,0,0,0,0,0,0,0,0,3.9898,3.9894,3.9859,3.9856,3.9853,3.9821,3.9834,3.9807,3.9796,3.9817,3.9794,3.9793,3.9771,3.9768,3.9761,3.9749,3.9747,3.9741,3.974,3.9739,3.9739,0,0,0,0,0,0,0,3.99,3.9896,3.9863,3.9858,3.9855,3.9843,3.9838,3.9829,3.9799,3.9815,3.9812,3.9807,3.977,3.9763,3.976,3.9747,3.9741,3.974,3.9739,3.9738,3.9733,3.9734,0,0,0,0,0,0,3.9906,3.9898,3.9864,3.9862,3.9874,3.9843,3.9837,3.9832,3.9799,3.9793,3.9808,3.9805,3.9765,3.9762,3.9758,3.9761,3.974,3.9738,3.9738,3.9733,3.9733,3.9734,0,0,0,0,0,0,3.9907,3.9904,3.9866,3.9879,3.9873,3.9843,3.9837,3.9831,3.9824,3.9793,3.9787,3.9807,3.9764,3.976,3.9753,3.9759,3.9738,3.9737,3.9732,3.9733,3.9734,3.9769,0,0,0,0,0,0,3.9909,3.9904,3.9908,3.9879,3.9873,3.9863,3.9837,3.9831,3.9822,3.9819,3.9791,3.9785,3.9764,3.9755,3.9751,3.9757,3.9736,3.9731,3.9732,3.9733,3.9767,3.9771,3.9775,0,0,0,0,0,3.9911,3.992,3.9909,3.9905,3.9877,3.9863,3.9859,3.9835,3.9823,3.9825,3.9805,3.9786,3.9759,3.9754,3.975,3.9756,3.9731,3.9732,3.9733,3.9766,3.977,3.9774,0,0,0,0,0,0,3.995,3.9916,3.9903,3.9904,3.9887,3.9857,3.9859,3.9842,3.9827,3.9824,3.9794,3.9788,3.9783,3.9769,3.9764,3.9758,3.9742,3.9743,3.9768,3.9772,3.9776,3.9779,3.9735,0,0,0,0,0,3.9959,3.9953,3.9922,3.9926,3.9918,3.989,3.9883,3.9866,3.9847,3.9839,3.9819,3.98,3.9787,3.9779,3.9765,3.9765,3.9756,3.9766,3.977,3.9773,3.9774,3.9769,3.9772,3.9738,3.9738,3.9738,0,0,3.9978,3.9958,3.9955,3.9933,3.9918,3.991,3.9884,3.9878,3.987,3.9838,3.9829,3.9813,3.979,3.9785,3.9782,3.9773,3.9781,3.9775,3.9778,3.9776,3.977,3.9773,3.9776,3.9739,3.9739,3.9739,0,0,4.0006,3.9992,3.9991,3.9976,3.9954,3.9934,3.9934,3.9906,3.9894,3.9885,3.986,3.985,3.9829,3.9812,3.9801,3.982,3.9801,3.9817,3.9835,3.9831,3.9833,3.9835,3.9839,3.9841,3.9817,3.9817,3.9817,0,4.0031,4.0019,3.9993,3.9987,3.9976,3.9947,3.9945,3.9931,3.9905,3.9898,3.9888,3.9859,3.9841,3.983,3.9835,3.9828,3.9824,3.9819,3.9835,3.9837,3.9838,3.9842,3.9844,3.9819,3.9819,3.9819,3.9819,0,4.0049,4.0041,4.0043,4.0018,4.0008,4.0004,3.9976,3.9968,3.9951,3.9932,3.9921,3.9899,3.9879,3.9875,3.9859,3.9861,3.9855,3.9841,3.9824,3.9844,3.9846,3.9848,3.9822,3.9821,3.9821,3.982,0,0,4.0102,4.0061,4.0062,4.0049,4.0021,4.0013,4.0006,3.9987,3.9979,3.9962,3.9953,3.9935,3.992,3.9908,3.9889,3.9885,3.9897,3.987,3.9869,3.9874,3.9895,3.9905,3.9907,3.9885,3.9885,3.9885,3.9896,0,4.0123,4.0111,4.0086,4.008,4.007,4.0041,4.0034,4.0015,3.9997,3.9984,3.9963,3.995,3.9933,3.9924,3.992,3.9897,3.9901,3.9896,3.9874,3.9874,3.988,3.9909,3.992,3.9932,3.9897,3.9897,3.9897,0,4.0147,4.0131,4.0124,4.0094,4.0088,4.0083,4.0062,4.0051,4.0027,4.0014,3.9998,3.9977,3.9966,3.9951,3.9933,3.993,3.9919,3.9906,3.9906,3.9902,3.9886,3.9903,3.9935,3.9936,3.9899,3.9899,3.9899,0,4.0183,4.0159,4.0151,4.0141,4.0106,4.0103,4.0088,4.0063,4.0052,4.0033,4.0025,4.0005,3.9993,3.9977,3.9949,3.9941,3.9933,3.9917,3.992,3.992,3.9919,3.9919,3.9947,3.9915,3.9915,3.9915,3.9915,0,4.0208,4.0205,4.0166,4.0161,4.0155,4.0126,4.012,4.0103,4.0081,4.007,4.0043,4.0033,3.9999,3.9984,3.9962,3.9949,3.9945,3.9932,3.9925,3.9933,3.9934,3.9925,3.9923,3.9915,3.9915,3.9915,3.9915,0,4.0247,4.0221,4.021,4.0178,4.0169,4.0166,4.0137,4.0129,4.0109,4.0095,4.009,4.0058,4.0039,4.001,3.9983,3.9968,3.9957,3.9949,3.9966,3.9962,3.9965,3.9965,3.9987,3.9988,3.9957,3.9957,3.9958,0,4.0264,4.026,4.0227,4.0218,4.0204,4.019,4.0179,4.0149,4.0138,4.0109,4.0104,4.0083,4.0065,4.0035,4.0008,3.9986,3.9975,3.9985,3.9972,3.9978,3.9973,3.9973,3.9971,3.9987,3.9988,3.9988,3.9989,0,4.0296,4.0283,4.0268,4.0247,4.0234,4.0216,4.0197,4.0191,4.0157,4.0145,4.0125,4.0111,4.0082,4.0061,4.0035,4.0017,3.9996,3.9993,3.9992,3.9999,4.0008,4.0001,3.9972,3.9992,3.9992,3.9992,3.9991,3.9991,4.0322,4.0316,4.0292,4.0275,4.0257,4.0239,4.023,4.0208,4.0192,4.0167,4.015,4.0131,4.0104,4.0067,4.005,4.0033,4.0024,4.0023,4.0023,4.0023,4.0024,4.0012,4.0028,4.0028,4.0028,4.0027,4.0027,0,4.035,4.0333,4.0318,4.0292,4.0278,4.0261,4.0238,4.0226,4.021,4.0188,4.017,4.0146,4.0124,4.0095,4.007,4.0062,4.0052,4.0057,4.0056,4.0052,4.0035,4.0037,4.0065,4.0065,4.0065,4.0065,4.0065,4.0065,4.0363,4.0352,4.0336,4.0315,4.0296,4.0278,4.0266,4.0249,4.023,4.0205,4.0187,4.0169,4.0142,4.0115,4.0094,4.0085,4.0077,4.0084,4.0073,4.0057,4.0053,4.005,4.0052,4.0083,4.0083,4.0091,4.0091,4.0091]}]]